Vorticity
7 7 7 7 7 7 6 7 7 7 6 6 6 6 6 5 5 5 5 5 6 7 7 6 6 6 7 8 8 7 8 5 3
7 8 8 8 7 7 7 7 7 6 6 6 5 5 5 5 7 6 6 7 7 8 8 8 8 7 8 8 7 8 8 7 8
7 8 8 8 8 8 8 8 7 7 6 6 5 5 5 5 4 4 5 5 5 6 6 7 7 8 8 8 8 9 8 8 8
7 7 7 7 6 6 6 6 7 7 7 7 6 6 6 6 5 6 6 6 5 5 6 6 6 6 6 8 8 8 9 9 8
6 6 6 5 5 5 5 5 5 5 4 4 4 4 4 5 4 4 5 6 6 6 7 8 7 8 8 8 8 9 9 9 11
6 6 6 6 5 5 6 6 7 6 6 6 6 6 6 6 6 6 6 7 7 7 8 8 7 8 8 8 9 9 10 8 9
6 7 7 7 7 7 6 6 5 5 5 4 4 4 4 5 6 6 7 8 8 9 7 7 7 8 9 9 10 11 12 10 11
6 7 7 6 6 6 6 5 4 3 3 4 4 5 6 7 9 11 11 10 9 9 9 9 8 7 7 8 9 9 11 13 13
6 6 7 7 6 5 5 4 3 3 4 5 5 6 8 10 11 11 9 9 9 9 8 7 6 6 5 6 8 10 8 9 10
6 6 7 7 6 5 4 4 5 6 6 6 7 8 9 11 10 9 7 7 7 6 6 6 6 6 6 6 6 9 10 8 8
6 7 6 6 6 5 5 6 7 7 7 8 9 10 12 12 11 9 8 8 8 8 8 7 7 7 7 6 7 6 9 10 9
6 6 6 6 6 6 6 6 6 7 7 8 9 11 10 8 8 7 6 6 7 7 7 8 8 9 10 9 7 6 6 8 8
6 6 6 6 5 5 6 7 7 6 6 8 9 9 8 8 7 6 7 7 6 6 7 7 7 7 8 8 10 12 10 8 8
6 6 6 6 6 5 6 8 6 5 7 9 10 9 8 7 7 6 6 6 6 6 5 5 6 6 7 7 7 8 10 11 10
6 6 6 5 5 6 8 5 4 5 8 9 10 8 7 7 7 7 6 6 6 6 6 6 7 7 7 7 7 7 8 8 10
7 6 6 6 6 7 3 5 8 9 9 9 8 7 7 6 7 7 7 7 7 7 7 6 6 6 7 7 7 7 7 7 8
6 6 7 7 5 3 5 6 6 7 8 7 6 6 7 6 6 7 8 8 7 6 6 6 6 6 6 7 7 8 8 7 7
7 7 7 4 3 5 5 6 7 7 7 7 6 7 5 7 8 6 5 5 4 4 4 6 6 6 7 6 6 6 6 6 7
7 6 4 4 4 5 5 5 5 6 7 7 6 6 5 4 6 6 6 6 4 4 5 6 7 6 6 6 7 7 7 7 6
6 4 4 4 4 5 5 6 7 7 8 8 7 7 7 7 6 5 2 -0 8 8 8 9 7 6 7 8 7 6 4 4 6
Height
3172 3170 3169 3167 3166 3164 3163 3162 3161 3160 3159 3158 3157 3156 3156 3155 3155 3155 3154 3153 3152 3152 3151 3149 3148 3147 3147 3146 3146 3146 3147 3147 3148
3172 3171 3169 3167 3166 3164 3162 3161 3160 3159 3159 3158 3157 3156 3155 3154 3155 3153 3152 3151 3150 3150 3149 3147 3146 3146 3145 3144 3144 3143 3143 3143 3144
3171 3170 3169 3167 3166 3164 3163 3162 3161 3160 3159 3158 3157 3156 3155 3154 3154 3153 3152 3150 3149 3148 3147 3145 3144 3143 3142 3141 3140 3140 3140 3140 3140
3171 3170 3169 3167 3166 3165 3163 3162 3161 3160 3159 3158 3157 3156 3155 3154 3153 3152 3151 3149 3148 3146 3144 3143 3142 3140 3139 3137 3137 3136 3136 3136 3136
3171 3170 3169 3167 3166 3164 3163 3162 3161 3160 3158 3157 3156 3155 3154 3153 3151 3150 3148 3147 3146 3144 3142 3140 3138 3137 3136 3135 3134 3132 3132 3131 3131
3170 3169 3168 3167 3165 3164 3163 3162 3160 3159 3157 3156 3155 3153 3152 3151 3149 3147 3145 3144 3142 3140 3139 3137 3135 3134 3132 3131 3130 3129 3128 3127 3127
3169 3168 3167 3166 3164 3163 3161 3160 3159 3158 3157 3155 3153 3152 3151 3149 3147 3145 3143 3142 3140 3138 3137 3135 3134 3132 3131 3129 3128 3126 3125 3123 3123
3168 3167 3166 3165 3163 3162 3161 3159 3158 3157 3155 3153 3152 3150 3149 3147 3144 3142 3140 3139 3137 3136 3134 3133 3131 3130 3128 3126 3125 3124 3123 3120 3120
3167 3166 3165 3164 3162 3161 3160 3159 3157 3155 3153 3151 3149 3147 3145 3143 3141 3139 3137 3136 3134 3133 3131 3129 3128 3126 3125 3124 3122 3121 3119 3118 3117
3165 3164 3163 3162 3161 3160 3159 3157 3155 3153 3151 3149 3147 3144 3142 3140 3137 3135 3134 3132 3130 3129 3128 3126 3124 3122 3121 3119 3118 3118 3116 3114 3114
3163 3162 3161 3160 3159 3158 3156 3155 3153 3151 3149 3147 3144 3142 3139 3138 3136 3134 3132 3131 3129 3127 3125 3124 3122 3120 3118 3116 3115 3113 3112 3111 3109
3161 3160 3159 3158 3157 3155 3154 3152 3150 3148 3146 3144 3142 3139 3137 3136 3133 3132 3130 3128 3126 3124 3123 3120 3119 3117 3115 3113 3111 3109 3107 3106 3105
3158 3158 3157 3155 3154 3153 3151 3149 3147 3146 3144 3141 3139 3137 3135 3134 3132 3129 3127 3125 3124 3122 3120 3117 3115 3112 3110 3109 3107 3106 3103 3101 3100
3156 3155 3154 3153 3152 3150 3148 3147 3145 3143 3141 3139 3137 3135 3133 3131 3130 3127 3125 3123 3121 3119 3117 3114 3112 3110 3107 3105 3103 3101 3100 3098 3095
3152 3152 3151 3150 3149 3147 3145 3144 3142 3140 3138 3136 3134 3132 3130 3128 3126 3124 3122 3120 3118 3116 3114 3112 3110 3107 3105 3102 3100 3097 3095 3094 3092
3149 3149 3148 3147 3145 3144 3142 3140 3138 3136 3134 3132 3131 3129 3127 3125 3123 3121 3119 3117 3114 3112 3109 3107 3105 3103 3100 3099 3096 3094 3092 3089 3087
3146 3145 3144 3143 3141 3139 3137 3135 3134 3132 3130 3128 3126 3124 3124 3120 3118 3116 3114 3112 3109 3107 3105 3102 3100 3099 3097 3094 3092 3090 3088 3085 3083
3142 3141 3140 3138 3136 3135 3133 3131 3129 3126 3125 3123 3121 3118 3116 3114 3113 3111 3108 3107 3104 3103 3100 3098 3096 3094 3092 3090 3088 3085 3083 3081 3079
3137 3136 3134 3133 3132 3130 3128 3126 3123 3121 3118 3116 3114 3112 3109 3107 3106 3104 3101 3100 3097 3095 3094 3092 3090 3088 3085 3083 3081 3080 3078 3076 3074
3132 3131 3130 3128 3126 3124 3122 3119 3117 3114 3112 3110 3108 3106 3102 3100 3097 3096 3097 3093 3090 3088 3087 3084 3082 3080 3078 3076 3074 3072 3070 3069 3068